Location: Drocourt
(49.0571°N, 1.7669°E)
Time: 20:57:54
(UTC+00:00)

SL-16 R/B - Pass Details

Date: 09 February 2023
Orbit: 842 x 846 km, 71.0° (Epoch: 21 March)

Event Time Altitude Azimuth Distance (km) Brightness Sun altitude
Rises 18:49:26 0° 257° (WSW) 3,398 6.9 -17.8°
Reaches altitude 10° 18:52:32 10° 274° (W) 2,467 5.9 -18.4°
Maximum altitude 18:56:41 20° 321° (NW) 1,845 4.4 -19.0°
Drops below altitude 10° 19:00:51 10° 8° (N) 2,478 4.5 -19.7°
Enters shadow 19:03:27 - 23° (NNE) 3,246 5.0 -20.1°
